sat.trackr.live / text

‹ back to catalog

STARLINK-5224

NORAD 55397 · 2023-014G

PAYLOAD ACTIVE UNKNOWN

§ Identity

Operator
Country
US
Launch date
2023-01-31
Launch site
AFWTR
Launch vehicle
Mass (kg)
RCS (m²)

Purposes: comms

External: N2YO · Heavens-Above · Gunter

§ Orbital elements

Epoch: 2026-09-20T22:00:03.000096Z

Period
95.46 min
Inclination
69.9995°
Eccentricity
0.0004458
Mean motion
15.08425999 rev/d
Perigee alt
537.9 km
Apogee alt
544.1 km
Semi-major
6,919.1 km
B*
6.9632e-3
RAAN
272.2430°
Arg perigee
263.9432°
Mean anomaly
0.9606°
Rev number
571

§ Raw data

STARLINK-52241 55397U 23014G   26263.91670139  .00110207  00000+0  69632-2 0  99922 55397  69.9995 272.2430 0004458 263.9432   0.9606 15.08425999  5714

JSON: /api/v1/satellites/55397 · /tle

For live sub-satellite position, see the globe view (requires WebGL).

§ Visibility from observer

Set your observer location to see the next 7 days of passes ≥ 10°. The values pass through the URL so the page stays shareable.

No JS? Fill the form by hand. The geolocation button needs JavaScript.